Location: Chandolas
(44.4033°N, 4.2533°E)
Time: 10:11:48
(UTC+00:00)

Cosmos 1076 Rocket - Pass Details

Date: 15 November 2019
Orbit: 588 x 614 km, 82.5° (Epoch: 09 December)

Event Time Altitude Azimuth Distance (km) Brightness Sun altitude
Rises 03:58:38 0° 174° (S) 2,865 7.0 -28.5°
Enters shadow 03:58:58 - 174° (S) 2,737 6.9 -28.4°
Exits shadow 04:03:15 30° 154° (SSE) 1,110 5.0 -27.7°
Maximum altitude 04:05:07 52° 94° (E) 767 4.3 -27.3°
Drops below altitude 10° 04:09:20 10° 18° (NNE) 1,968 6.3 -26.6°
Sets 04:11:36 0° 14° (NNE) 2,873 7.1 -26.2°
